カタログに戻る

SL-14 DEB

運用中PO
NORAD 45301·DEBRIS·🇷🇺 Russia

打ち上げ Aug 15, 1991 から Plesetsk Cosmodrome

Loading…

次のパス (今後24時間)

TLE

最新Source: Space-Track

元期: Sep 14, 2026, 03:07 UTC

1 45301U 91056AP  26257.13007172  .00000930  00000-0  10612-2 0  9991
2 45301  82.4965 312.4326 0173207 158.5291 202.3240 13.62761954325053

AllMySatでSL-14 DEBをリアルタイム追跡

Download on the App Store